KC7GVU Weather Reports


Display with metric or nautical units.
time (UTC)temp
F
wind
direction
speed
MPH
gust
MPH
rain 1hr
in
rain 24hr
in
rain mn
in
humidity
%
barometer
mb
20260503234323 78 0 0.0 0.0 0.00 0.00 0.00 37 1010.0
20260503233823 78 22 0.0 0.0 0.00 0.00 0.00 37 1010.0
20260503233323 79 0 0.0 0.0 0.00 0.00 0.00 37 1010.0
20260503232823 79 338 0.0 0.0 0.00 0.00 0.00 37 1010.0
20260503232323 78 45 0.0 0.0 0.00 0.00 0.00 38 1010.0
20260503231822 78 45 0.0 0.0 0.00 0.00 0.00 38 1010.0
20260503231324 78 45 0.0 0.0 0.00 0.00 0.00 38 1010.0
20260503230824 78 45 0.0 0.0 0.00 0.00 0.00 38 1010.0
20260503230323 78 0 0.0 0.0 0.00 0.00 0.00 39 1010.0
20260503225823 78 338 0.0 0.0 0.00 0.00 0.00 39 1011.0
20260503225323 78 45 0.0 0.0 0.00 0.00 0.00 39 1011.0
20260503224823 78 45 0.0 0.0 0.00 0.00 0.00 39 1011.0
20260503224323 78 22 0.0 0.0 0.00 0.00 0.00 39 1011.0
20260503223823 78 338 0.0 0.0 0.00 0.00 0.00 39 1011.0
20260503223323 78 45 0.0 0.0 0.00 0.00 0.00 40 1011.0
20260503222823 78 45 0.0 0.0 0.00 0.00 0.00 40 1011.0
20260503222324 77 338 0.0 0.0 0.00 0.00 0.00 40 1012.0
20260503221823 77 22 0.0 0.0 0.00 0.00 0.00 40 1012.0
20260503221323 77 45 0.0 0.0 0.00 0.00 0.00 40 1012.0
20260503220324 77 45 0.0 0.0 0.00 0.00 0.00 41 1012.0
20260503215823 77 338 0.0 0.0 0.00 0.00 0.00 42 1012.0
20260503215323 76 45 0.0 0.0 0.00 0.00 0.00 40 1012.0
20260503214823 76 22 0.0 0.0 0.00 0.00 0.00 41 1012.0
20260503214323 76 22 0.0 0.0 0.00 0.00 0.00 41 1012.0
20260503213823 76 45 0.0 0.0 0.00 0.00 0.00 41 1012.0
20260503213324 76 338 0.0 0.0 0.00 0.00 0.00 41 1012.0
20260503212824 76 22 0.0 0.0 0.00 0.00 0.00 41 1012.0
20260503212324 76 22 0.0 0.0 0.00 0.00 0.00 41 1012.0
20260503211824 77 22 0.0 0.0 0.00 0.00 0.00 42 1012.0
20260503211323 77 22 0.0 0.0 0.00 0.00 0.00 42 1012.0
20260503210824 77 22 0.0 0.0 0.00 0.00 0.00 41 1012.0
20260503210323 77 22 0.0 0.0 0.00 0.00 0.00 41 1012.0
20260503205823 78 22 0.0 0.0 0.00 0.00 0.00 41 1012.0
20260503205323 78 45 0.0 0.0 0.00 0.00 0.00 42 1012.0
20260503204823 77 22 0.0 0.0 0.00 0.00 0.00 42 1012.0
20260503203824 77 45 0.0 0.0 0.00 0.00 0.00 43 1012.0
20260503203323 77 22 0.0 0.0 0.00 0.00 0.00 43 1012.0
20260503202825 77 45 0.0 0.0 0.00 0.00 0.00 43 1012.0
20260503202324 78 22 0.0 0.0 0.00 0.00 0.00 43 1012.0
20260503201824 78 22 0.0 0.0 0.00 0.00 0.00 44 1012.0
20260503201324 77 22 0.0 0.0 0.00 0.00 0.00 43 1012.0
20260503200824 77 45 0.0 0.0 0.00 0.00 0.00 44 1012.0
20260503200324 77 45 0.0 0.0 0.00 0.00 0.00 44 1012.0
20260503195824 77 45 0.0 0.0 0.00 0.00 0.00 44 1012.0
20260503195323 77 22 0.0 0.0 0.00 0.00 0.00 44 1012.0
20260503194823 76 45 0.0 0.0 0.00 0.00 0.00 44 1012.0
20260503194323 76 45 0.0 0.0 0.00 0.00 0.00 44 1012.0
20260503193824 76 22 0.0 0.0 0.00 0.00 0.00 44 1012.0
20260503193324 76 22 0.0 0.0 0.00 0.00 0.00 44 1013.0
20260503192824 76 22 0.0 0.0 0.00 0.00 0.00 44 1012.0
20260503192324 76 45 0.0 0.0 0.00 0.00 0.00 44 1013.0
20260503191824 76 22 0.0 0.0 0.00 0.00 0.00 45 1013.0
20260503191324 75 22 0.0 0.0 0.00 0.00 0.00 44 1013.0
20260503190824 76 45 0.0 0.0 0.00 0.00 0.00 44 1013.0
20260503190324 76 0 0.0 0.0 0.00 0.00 0.00 45 1013.0
20260503185824 75 45 0.0 0.0 0.00 0.00 0.00 44 1013.0
20260503185324 75 22 0.0 0.0 0.00 0.00 0.00 46 1013.0
20260503184824 75 45 0.0 0.0 0.00 0.00 0.00 44 1013.0
20260503184324 74 45 0.0 0.0 0.00 0.00 0.00 45 1013.0
20260503183824 74 22 0.0 0.0 0.00 0.00 0.00 44 1013.0
20260503183324 74 45 0.0 0.0 0.00 0.00 0.00 45 1013.0
20260503182824 74 0 0.0 0.0 0.00 0.00 0.00 45 1014.0
20260503182324 73 45 0.0 0.0 0.00 0.00 0.00 46 1013.0
20260503181824 73 0 0.0 0.0 0.00 0.00 0.00 45 1013.0
20260503181324 73 45 0.0 0.0 0.00 0.00 0.00 47 1014.0
20260503180824 73 22 0.0 0.0 0.00 0.00 0.00 47 1014.0
20260503180324 73 45 0.0 0.0 0.00 0.00 0.00 47 1014.0
20260503175324 73 22 0.0 0.0 0.00 0.00 0.00 46 1014.0
20260503174823 72 45 0.0 0.0 0.00 0.00 0.00 48 1014.0
20260503174323 72 45 0.0 0.0 0.00 3.29 0.00 48 1014.0
20260503173823 72 22 0.0 0.0 0.00 0.00 0.00 47 1014.0
20260503173324 72 22 0.0 0.0 0.00 0.00 0.00 47 1014.0
20260503172824 72 45 0.0 0.0 0.00 0.00 0.00 47 1014.0
20260503172324 72 45 0.0 0.0 0.00 0.00 0.00 47 1014.0
20260503171824 72 22 0.0 0.0 0.00 0.00 0.00 47 1014.0
20260503171323 71 202 0.0 0.0 0.00 0.00 0.00 48 1014.0
20260503170824 71 22 0.0 0.0 0.00 0.00 0.00 48 1014.0
20260503170323 71 45 0.0 0.0 0.00 0.00 0.00 49 1014.0
20260503150823 66 225 0.0 0.0 0.00 0.00 0.00 56 1015.0
20260503150325 65 225 0.0 0.0 0.00 0.00 0.00 57 1015.0
20260503131324 54 225 0.0 0.0 0.00 0.00 0.00 63 1014.0
20260503130824 54 225 0.0 0.0 0.00 0.00 0.00 63 1014.0
20260503130324 54 225 0.0 0.0 0.00 0.00 0.00 63 1014.0
20260503110824 56 225 0.0 0.0 0.00 0.00 0.00 59 1014.0
20260503110324 56 225 0.0 0.0 0.00 0.00 0.00 58 1014.0
20260503090324 60 225 0.0 0.0 0.00 0.00 0.00 55 1014.0
20260503081323 60 225 0.0 0.0 0.00 0.00 0.00 55 1014.0
20260503080825 60 202 0.0 0.0 0.00 0.00 0.00 55 1014.0
20260503080325 60 225 0.0 0.0 0.00 0.00 0.00 55 1014.0
20260503072824 60 225 0.0 0.0 0.00 0.00 0.00 55 1014.0
20260503072325 61 225 0.0 0.0 0.00 0.00 0.00 55 1014.0
20260503071824 61 225 0.0 0.0 0.00 0.00 0.00 55 1014.0
20260503071323 61 202 0.0 0.0 0.00 0.00 0.00 55 1014.0
20260503070825 61 225 0.0 0.0 0.00 0.00 0.00 55 1014.0
20260503070325 60 202 0.0 0.0 0.00 0.00 0.00 56 1014.0
20260503060324 61 225 0.0 0.0 0.00 0.00 0.00 56 1014.0
20260503054824 61 225 0.0 0.0 0.00 0.00 0.00 56 1014.0
20260503054323 61 225 0.0 0.0 0.00 0.00 0.00 56 1014.0
20260503053823 61 202 0.0 0.0 0.00 0.00 0.00 56 1014.0
20260503053324 61 202 0.0 0.0 0.00 0.00 0.00 56 1014.0
20260503052824 62 225 0.0 0.0 0.00 0.00 0.00 56 1014.0
20260503052325 62 202 0.0 0.0 0.00 0.00 0.00 56 1014.0
20260503051825 62 225 0.0 0.0 0.00 0.00 0.00 56 1014.0
20260503051325 62 202 0.0 0.0 0.00 0.00 0.00 56 1014.0
20260503050825 62 202 0.0 0.0 0.00 0.00 0.00 56 1014.0
20260503050325 62 202 0.0 0.0 0.00 0.00 0.00 56 1014.0
20260503045825 62 225 0.0 0.0 0.00 0.00 0.00 56 1014.0
20260503044824 62 225 0.0 0.0 0.00 0.00 0.00 56 1014.0
20260503044323 62 202 0.0 0.0 0.00 0.00 0.00 56 1014.0
20260503043823 62 225 0.0 0.0 0.00 0.00 0.00 55 1014.0
20260503043323 63 202 0.0 0.0 0.00 0.00 0.00 55 1014.0
20260503042823 63 225 0.0 0.0 0.00 0.00 0.00 55 1014.0
20260503042325 63 225 0.0 0.0 0.00 0.00 0.00 54 1014.0
20260503041825 63 202 0.0 0.0 0.00 0.00 0.00 54 1014.0
20260503041326 63 202 0.0 0.0 0.00 0.00 0.00 54 1013.0
20260503040825 64 225 0.0 0.0 0.00 0.00 0.00 53 1013.0
20260503040324 64 225 0.0 0.0 0.00 0.00 0.00 53 1013.0
20260503035823 64 202 0.0 0.0 0.00 0.00 0.00 52 1013.0
20260503035323 64 225 0.0 0.0 0.00 0.00 0.00 52 1013.0
20260503034824 64 225 0.0 0.0 0.00 0.00 0.00 51 1013.0
20260503034324 64 225 0.0 0.0 0.00 0.00 0.00 51 1013.0
20260503033823 65 202 0.0 0.0 0.00 0.00 0.00 51 1013.0
20260503033323 65 225 0.0 0.0 0.00 0.00 0.00 50 1013.0
20260503032825 66 225 0.0 0.0 0.00 0.00 0.00 50 1013.0
20260503032325 66 225 0.0 0.0 0.00 0.00 0.00 49 1013.0
20260503031825 67 225 0.0 0.0 0.00 0.00 0.00 48 1013.0
20260503031325 68 202 0.0 0.0 0.00 0.00 0.00 47 1013.0
20260503030825 68 225 0.0 0.0 0.00 0.00 0.00 46 1013.0
20260503030325 68 225 0.0 0.0 0.00 0.00 0.00 46 1013.0
20260503025824 69 225 0.0 0.0 0.00 0.00 0.00 45 1013.0
20260503025325 69 225 0.0 0.0 0.00 0.00 0.00 44 1013.0
20260503024824 70 225 0.0 0.0 0.00 0.00 0.00 43 1013.0
20260503024324 70 225 0.0 0.0 0.00 0.00 0.00 43 1013.0
20260503023823 70 225 0.0 0.0 0.00 0.00 0.00 43 1013.0
20260503023323 70 225 0.0 0.0 0.00 0.00 0.00 42 1013.0
20260503022824 70 225 0.0 0.0 0.00 0.00 0.00 42 1012.0
20260503022323 71 225 0.0 0.0 0.00 0.00 0.00 42 1013.0
20260503021824 71 225 0.0 0.0 0.00 0.00 0.00 42 1013.0
20260503021324 71 225 0.0 0.0 0.00 0.00 0.00 42 1013.0
20260503020824 71 225 0.0 0.0 0.00 0.00 0.00 42 1013.0
20260503020324 71 225 0.0 0.0 0.00 0.00 0.00 42 1013.0
20260503015824 72 225 0.0 0.0 0.00 0.00 0.00 42 1013.0
20260503015324 72 202 0.0 0.0 0.00 0.00 0.00 41 1013.0
20260503014824 72 202 0.0 0.0 0.00 0.00 0.00 41 1013.0
20260503014323 72 225 0.0 0.0 0.00 0.00 0.00 41 1013.0
20260503013823 73 225 0.0 0.0 0.00 0.00 0.00 41 1013.0
20260503013324 73 225 0.0 0.0 0.00 0.00 0.00 41 1013.0
20260503012824 73 45 0.0 0.0 0.00 0.00 0.00 40 1013.0
20260503012324 73 45 0.0 0.0 0.00 0.00 0.00 40 1014.0
20260503011825 73 45 0.0 0.0 0.00 0.00 0.00 41 1013.0
20260503011325 74 45 0.0 0.0 0.00 0.00 0.00 40 1013.0
20260503010825 74 22 0.0 0.0 0.00 0.00 0.00 41 1014.0
20260503010326 74 45 0.0 0.0 0.00 0.00 0.00 40 1014.0
20260503005825 74 45 0.0 0.0 0.00 0.00 0.00 40 1014.0
20260503005325 74 45 0.0 0.0 0.00 0.00 0.00 42 1014.0
20260503004824 74 22 0.0 0.0 0.00 0.00 0.00 42 1014.0
20260503003824 74 22 0.0 0.0 0.00 0.00 0.00 43 1014.0
20260503003324 74 22 0.0 0.0 0.00 0.00 0.00 42 1014.0
20260503002824 74 45 0.0 0.0 0.00 0.00 0.00 43 1014.0
20260503002324 74 0 0.0 0.0 0.00 0.00 0.00 42 1014.0
20260503001827 74 45 0.0 0.0 0.00 0.00 0.00 42 1014.0
20260503001324 75 338 0.0 0.0 0.00 0.00 0.00 42 1014.0
20260503000824 75 45 0.0 0.0 0.00 0.00 0.00 43 1014.0
20260503000325 75 45 0.0 0.0 0.00 0.00 0.00 42 1014.0
20260502235823 75 0 0.0 0.0 0.00 0.00 0.00 42 1014.0
20260502235323 75 22 0.0 0.0 0.00 0.00 0.00 42 1014.0
20260502234823 75 45 0.0 0.0 0.00 0.00 0.00 42 1014.0